Regional Weather Roundup
Issued by NWS

Home | Current Version | Previous Version | Graphics & Text | Print | Product List | Glossary On
Versions: 1 2 3 4 5 6 7 8 9 10 11 12 13 14 15 16 17 18 19 20 21 22 23 24 25 26 27 28 29 30 31 32 33 34 35 36 37 38 39 40 41 42 43 44 45 46 47 48 49 50
794
ASUS44 KLIX 250210
RWRLA
LOUISIANA WEATHER ROUNDUP
NATIONAL WEATHER SERVICE NEW ORLEANS LA
900 PM CDT FRI OCT 24 2014

NOTE: "FAIR" INDICATES FEW OR NO CLOUDS BELOW 12,000 FEET WITH NO
      SIGNIFICANT WEATHER AND/OR OBSTRUCTIONS TO VISIBILITY.
      SKY/WX - SKY CONDITION AND SIGNIFICANT WEATHER.
      TMP - AIR TEMPERATURE.    DP   - DEWPOINT TEMPERATURE.
      RH  - RELATIVE HUMIDITY.  PRES - PRESSURE.
      HX  - HEAT INDEX.         WCI  - WIND CHILL INDEX.

*  THESE STATIONS ARE NOT NWS OR FAA STATIONS AND ARE NOT UNDER
   NWS QUALITY CONTROL.

LAZ040-048-061>063-065-066-069-250300-
SOUTHEAST LOUISIANA

CITY           SKY/WX    TMP DP  RH WIND       PRES   REMARKS
N.O. AUDUBON     N/A     67  52  59 MISG        N/A
N.O. INTL ARPT CLEAR     68  50  52 N6        30.09R
N.O. LAKEFRONT CLEAR     71  52  50 N12       30.09R
N.O. DOWNTOWN* FAIR      72  48  43 N5        30.09R
SLIDELL        CLEAR     55  51  86 N3        30.08R
BATON ROUGE    CLEAR     57  51  80 CALM      30.11R
BOOTHVILLE     CLEAR     67  56  67 NW5       30.08R
BELLE CHASSE   PTCLDY    55  50  83 CALM      30.09R
BOGALUSA*        N/A     56  48  75 CALM      30.10S
NEW ROADS*     FAIR      56  51  82 CALM      30.11R
GONZALES*      FAIR      56  56 100 CALM      30.10R
HAMMOND*       CLEAR     55  50  82 CALM      30.11S
HOUMA*         CLEAR     55  51  86 CALM      30.10R
PORT FOURCHON* CLEAR     68  54  60 N7        30.13R

$$

LAZ041-044-053-054-250300-
SOUTHWEST LOUISIANA

CITY           SKY/WX    TMP DP  RH WIND       PRES   REMARKS
LAKE CHARLES   CLEAR     58  52  80 CALM      30.12R
LAFAYETTE      CLEAR     60  57  89 CALM      30.11R
PATTERSON      CLEAR     61  54  77 N3        30.13R
SALT POINT       N/A     65  53  65 N3        30.10R
NEW IBERIA     CLEAR     60  53  77 CALM      30.11S
CHENAULT AIRPK NOT AVBL

$$

LAZ027-028-250300-
CENTRAL LOUISIANA

CITY           SKY/WX    TMP DP  RH WIND       PRES   REMARKS
FORT POLK      CLEAR     57  53  86 NE2       30.12R
ALEXANDRIA INT CLEAR     56  54  93 CALM      30.11R
ALEXANDRIA     CLEAR     52  52 100 CALM      30.12S

$$

LAZ001-002-250300-
NORTHWEST LOUISIANA

CITY           SKY/WX    TMP DP  RH WIND       PRES   REMARKS
SHREVEPORT     MOCLDY    61  56  83 CALM      30.11S
BARKSDALE AFB  PTCLDY    61  58  92 SE2       30.11F
DTN SHREVEPORT CLEAR     61  56  83 CALM      30.11F

$$

LAZ014-016-250300-
NORTHEAST LOUISIANA

CITY           SKY/WX    TMP DP  RH WIND       PRES   REMARKS
MONROE         CLEAR     54  52  93 CALM      30.13S
TALLULAH       CLEAR     48  46  93 CALM      30.12R

$$




USA.gov is the U.S. government's official web portal to all federal, state and local government web resources and services.